Location: *
(46.1866°S, 178.5290°W)
Time: 13:24:33
(UTC+00:00)

Cosmos 1461 - Pass Details

Date: 02 October 2021
Orbit: 520 x 642 km, 65.0° (Epoch: 18 October)

Event Time Altitude Azimuth Distance (km) Brightness Sun altitude
Rises 14:25:08 0° 210° (SSW) 2,916 6.7 -28.5°
Reaches altitude 10° 14:28:02 10° 191° (S) 2,027 6.0 -28.2°
Maximum altitude 14:31:17 19° 146° (SE) 1,550 5.8 -27.7°
Drops below altitude 10° 14:34:33 10° 101° (E) 2,051 6.5 -27.3°
Sets 14:37:30 0° 82° (E) 2,963 7.1 -26.9°
